User: anonymous   Login
Location: Caltech
(34.1382°N, 118.1253°W)
Time: 12:12:03
(UTC-07:00)
Language:

CZ-2C R/B - Orbit

View from above orbital plane
View from above orbital plane
View from above satellite
View from above satellite

Ground track
Ground track

The orbit data is extracted from the following two-line orbital elements,

1 36089U 09061B   17177.96524544 -.00000027 +00000-0 +46074-5 0  9990
2 36089 098.0518 179.3297 0082476 016.5785 040.4068 14.49665357403038
Epoch (UTC): 26 June 2017 23:09:57
Eccentricity: 0.0082476
inclination: 98.0518°
perigee height: 668 km
apogee height: 785 km
right ascension of ascending node: 179.3297°
argument of perigee: 16.5785°
revolutions per day: 14.49665357
mean anomaly at epoch: 40.4068°
orbit number at epoch: 40303

The dashed part of the orbit path shows where the satellite is in the earth's shadow,  

DLR